Flag for U.S.A. Weather past 2 weeks in Pasadena, California, U.S.A.

Now
85 °F

Sunny.


Feels Like: 82 °F
Forecast: 67 / 90 °F
Wind: 7 mph from South

Location: Burbank-Glendale-Pasadena Airport

Current Time: Jul 28, 2014 at 7:35:09 PM

Latest Report: Jul 28, 2014 at 6:53 PM


Visibility: 10 mi

Pressure: 29.94 "Hg

Humidity: 24%

Dew point: 44 °F

Location of PasadenaLocation

Historic Weather in Pasadena — Graph

°F

Pasadena temperature yesterday

Maximum temperature yesterday: 92 °F (at 4:53 PM)
Minimum temperature yesterday: 71 °F (at 5:53 AM)
Average temperature yesterday: 78 °F

Past Weeks' High & Low Weather Summary

 TemperatureHumidityPressure
High97 °F (Jul 24, 3:53 PM)87% (Jul 19, 5:53 AM)30.03 "Hg (Jul 19, 5:53 AM)
Low62 °F (Jul 18, 4:53 AM)15% (Jul 27, 3:53 PM)29.70 "Hg (Jul 24, 6:53 PM)
Average74 °F59%29.93 "Hg
* Reported Jul 13 5:53 PM — Jul 28 5:53 PM, Pasadena, Weather by CustomWeather, © 2014

Note: Actual official high and low records may vary slightly from our data, if they occured in-between our weather recording intervals... More about our weather records

Advertising

Pasadena weather history for previous 24 hours

 ConditionsComfort  
Time TempWeatherWind HumidityBarometerVisibility
5:53 PM
Jul 28
87 °FSunny.7 mph24%29.93 "Hg10 mi
4:53 PM88 °FSunny.9 mph22%29.94 "Hg10 mi
3:53 PM87 °FSunny.10 mph22%29.96 "Hg10 mi
2:53 PM87 °FSunny.10 mph27%29.98 "Hg10 mi
1:53 PM90 °FSunny.10 mph28%29.98 "Hg10 mi
12:53 PM87 °FSunny.6 mph31%30.01 "Hg10 mi
11:53 AM84 °FSunny.6 mph37%30.03 "Hg10 mi
10:53 AM84 °FSunny.No wind35%30.03 "Hg10 mi
9:53 AM80 °FSunny.5 mph42%30.03 "Hg10 mi
8:53 AM76 °FSunny.No wind56%30.03 "Hg10 mi
7:53 AM72 °FSunny.No wind66%30.02 "Hg10 mi
6:53 AM71 °FClear.No wind66%30.01 "Hg10 mi
5:53 AM71 °FClear.6 mph68%30.00 "Hg10 mi
4:53 AM71 °FPassing clouds.3 mph66%30.00 "Hg10 mi
3:53 AM70 °FClear.5 mph71%29.99 "Hg10 mi
2:53 AM70 °FClear.No wind71%29.98 "Hg10 mi
1:53 AM69 °FClear.6 mph76%29.98 "Hg10 mi
12:53 AM72 °FClear.8 mph68%29.98 "Hg10 mi
11:53 PM
Jul 27
71 °FClear.10 mph76%29.96 "Hg10 mi
10:53 PM77 °FClear.9 mph56%29.93 "Hg10 mi
9:53 PM83 °FClear.No wind34%29.91 "Hg10 mi
8:53 PM82 °FSunny.3 mph35%29.90 "Hg10 mi
7:53 PM81 °FSunny.5 mph37%29.90 "Hg10 mi
Weather by CustomWeather, © 2014

See weather overviewHow to use our weather pages